Погода в Овингс Миллс

США     39°25′08″N   76°46′48″W
В апреле 2022 года жителям России запретили посещать сайт meteo.paraplan.net по решению Генеральной прокуратуры. Аудитория сайта уменьшилась в 10 раз. Владельцы сайта не видят смысла в поддержке погодного сервера в таких условиях. Сайт будет закрыт в октябре.
темп.,
°C
ветер,
м/с
пор.,
м/с
влажн.,
%
обл.,
%
осадки,
мм/ч
давл.,
гПа
погр.,
м
4 октября, вт
вт423:00+8ссв41281100 0.6 1022673
02:00+8с51381100 1.3 1021732
05:00+7с6148698 1.1 1019733
08:00+7с61492100 3.4 1018672
11:00+7с71494100 7.4 1018624
14:00+8с71295100 9.0 1016642
17:00+9с71396100 2.3 1015608
20:00+9с61396100 5.9 1015500
5 октября, ср
ср523:00+9ссз61395100 2.4 1015573
02:00+9ссз61395100 3.1 1014482
05:00+10ссз61295100 0.3 1014449
08:00+10ссз51195100 0.6 1014434
11:00+12ссз51290100 0.1 1015483
14:00+12ссз51086100 0.1 1015411
17:00+14ссз4117299 0.0 1016444
20:00+12ссз257726 0.0 101798
6 октября, чт
чт623:00+12сз22762 0.0 101722
02:00+11сз22761 0.0 101716
05:00+10сз237443 0.0 101641
08:00+10сз227461 0.0 101750
11:00+18зсз2354100 0.0 1017412
14:00+21з2348100 0.0 1016935
17:00+20з2359100 0.0 1015464
20:00+15зюз227286 0.0 101617
7 октября, пт
пт723:00+14з357114 0.0 101692
02:00+13з23732 0.0 101650
05:00+12з23725 0.0 101547
08:00+13з37685 0.0 1015129
11:00+20зюз46505 0.0 1015532
14:00+21зсз685071 0.0 10141352
17:00+14сз7127699 0.0 1017705
20:00+10сз513735 0.1 1019697
8 октября, сб
сб823:00+7ссз512654 0.0 1022722
02:00+5зсз310745 0.0 1023382
05:00+5сз310695 0.0 1024383
08:00+5зсз37660 0.0 1025249
11:00+11сз58465 0.0 10251478
14:00+13сз57395 0.0 10231604
17:00+14зсз47441 0.0 10211708
20:00+9зсз36570 0.0 1023121